Regional Weather Roundup
Issued by NWS

Home | Current Version | Previous Version | Text Only | Print | Product List | Glossary On
Versions: 1 2 3 4 5 6 7 8 9 10 11 12 13 14 15 16 17 18 19 20 21 22 23 24 25 26
000
ASUS42 KTBW 270517
RWRFL
FLORIDA REGIONAL WEATHER ROUNDUP
NATIONAL WEATHER SERVICE TAMPA BAY RUSKIN FL
100 AM EDT WED JUL 27 2016

NOTE: "FAIR" INDICATES FEW OR NO CLOUDS BELOW 12,000 FEET WITH NO
SIGNIFICANT WEATHER AND/OR OBSTRUCTIONS TO VISIBILITY.

FLZ001>010-012>015-112-114-115-270600-
PANHANDLE FLORIDA

CITY           SKY/WX    TMP DP  RH WIND       PRES   REMARKS
PENSACOLA      PTCLDY    80  73  79 SW7       30.04S
PENSACOLA NAS  PTCLDY    82  72  71 SW9       30.04R
MILTON NAS     CLEAR     77  76  96 SW3       30.05S
CRESTVIEW      LGT RAIN  76  73  91 CALM      30.07R
DUKE FIELD     MOCLDY    76  74  93 S6        30.05F
VALPARAISO     PTCLDY    81  73  76 SW8       30.05S
MARY ESTHER    PTCLDY    82  72  71 SW8       30.04S
TRI COUNTY     MOCLDY    75  74  96 S5        30.09R
PANAMA CITY    MOCLDY    77  75  93 CALM      30.06S
TYNDALL AFB    CLOUDY    81  75  82 W9        30.08R
APALACHICOLA   PTCLDY    77  77 100 CALM      30.08S

STATION/POSITION SKY/WX   TEMP    WIND        PRES    WAVE   SWELL
                          AIR SEA DIR/SP/G            HT/PER HT/PER
                          (F)     (DEG/KT/KT) (MB)    (FT/S) (FT/S)
30.1N   87.6W              83 87  220/ 16/ 19 1017.4R   5/ 6
29.2N   88.2W              83 86  180/ 14/ 17 1017.4R
28.8N   86.0W              82 87  300/ 12/ 14 1018.8R   4/ 6   3/ 6
PANAMA CITY BEAC           81 87  260/ 19/ 22 1018.6
TOWER C                    82     280/ 10/ 11 1019.4R
28.5N   84.5W              85 87  250/  6/  8 1018.6R   3/ 6   2/ 6

$$
FLZ011-016>038-118-127-128-134-139-239-270600-
NORTH FLORIDA

CITY           SKY/WX    TMP DP  RH WIND       PRES   REMARKS
MARIANNA       PTCLDY    76  76 100 SW5       30.07R
TALLAHASSEE    CLEAR     79  75  87 CALM      30.08R
PERRY          CLEAR     77  75  93 CALM      30.09S
LIVE OAK         N/A     77  77 100 CALM      30.11S
CROSS CITY       N/A     75  71  87 CALM      30.07S
LAKE CITY      FAIR      73  72  94 CALM      30.09S
GAINESVILLE    CLOUDY    77  71  82 CALM      30.09R
WILLISTON      FAIR      79  77  94 CALM      30.10R
PALATKA        FAIR      77  77 100 W5        30.09S
MAYPORT NAS    MOCLDY    80  75  84 S3        30.08R
JACKSONVILLE   CLOUDY    78  76  93 CALM      30.08R
JAX NAS        PTCLDY    81  77  88 W5        30.09R
JAX CECIL      PTCLDY    75  75 100 CALM      30.09R
FERNANDINA BEA FAIR      82  77  83 CALM      30.06F
ST AUGUSTINE   PTCLDY    80  73  79 CALM      30.09S
PALM COAST     FAIR      80  74  82 S8        30.08F

STATION/POSITION SKY/WX   TEMP    WIND        PRES    WAVE   SWELL
                          AIR SEA DIR/SP/G            HT/PER HT/PER
                          (F)     (DEG/KT/KT) (MB)    (FT/S) (FT/S)
SHELL POINT                83     300/  3/  5 1016.9
KEATON BEACH               85     280/  7/  9 1018.2R
CEDAR KEY                  85     290/  3/  4 1018.7R
FERNANDINA                 83 90  180/  3/  5 1018.2
30.7N   81.3W                 86                N/A     3/ 4
MAYPORT                    83 88  130/  2/  3 1018.7
31.4N   80.9W              86 87  190/ 16/ 17 1017.3F   3/ 4
ST AUGUSTINE               81 85  220/  6/  8 1019.5R

$$
FLZ040-043>046-052-053-057-058-063-144-270600-
INTERIOR CENTRAL FLORIDA

CITY           SKY/WX    TMP DP  RH WIND       PRES   REMARKS
OCALA          CLOUDY    79  72  78 CALM      30.10R
THE VILLAGES     N/A     79  73  83 CALM      30.00R
LEESBURG       CLOUDY    78  75  90 CALM      30.10S
SANFORD        CLOUDY    83  73  72 S6        30.09S
ORLANDO EXEC   PTCLDY    82  74  76 W3        30.10R
ORLANDO INTL   PTCLDY    80  74  81 S3        30.09S
KISSIMMEE      CLEAR     81  75  82 W7        30.10S
WINTER HAVEN   MOCLDY    83  72  69 S3        30.10F
BARTOW         MOCLDY    79  73  83 CALM      30.10F
OKEECHOBEE     CLEAR     73  72  94 CALM      30.09S

$$
FLZ041-047-054-059-064-141-147-270600-
EAST CENTRAL FLORIDA

CITY           SKY/WX    TMP DP  RH WIND       PRES   REMARKS
DAYTONA BEACH  PTCLDY    80  74  81 SW3       30.09S
JFK SPACE CTR  CLEAR     81  76  84 S5        30.08S
CAPE CANAVERAL CLEAR     83  76  80 S7        30.07F
PATRICK AFB    CLEAR     83  76  80 SE8       30.08F
MELBOURNE      CLEAR     80  75  84 S3        30.08F
VERO BEACH     CLEAR     80  73  79 CALM      30.09S
FT PIERCE      CLEAR     74  73  97 CALM      30.08F
STUART         CLEAR     82  77  83 SE5       30.10S

STATION/POSITION SKY/WX   TEMP    WIND        PRES    WAVE   SWELL
                          AIR SEA DIR/SP/G            HT/PER HT/PER
                          (F)     (DEG/KT/KT) (MB)    (FT/S) (FT/S)
28.5N   80.2W              84 84  170/ 10/ 12 1019.2R
28.9N   78.5W              85 86  170/  8/ 10 1019.0F
TRIDENT PIER               84 88  150/ 10/ 13 1019.1
28.4N   80.5W                 85                N/A     2/ 3
27.5N   80.2W                 84                N/A     1/ 8

$$
FLZ050-056-061-142-242-148-248-149-249-151-251-155-255-
160-260-270600-
WEST CENTRAL FLORIDA

CITY           SKY/WX    TMP DP  RH WIND       PRES   REMARKS
CRYSTAL RIVER  FAIR      75  73  94 CALM      30.09R
INVERNESS      MOCLDY    77  77 100 CALM      30.10R
BROOKSVILLE    MOCLDY    78  75  90 SE6       30.10S
ZEPHYRHILLS    CLOUDY    61  61 100 N3        30.10S
CLEARWATER AIR FAIR      81  77  89 CALM      30.07F
ST PETE CLEARW PTCLDY    84  70  62 NE7       30.08S
TAMPA INTL     PTCLDY    82  77  84 E7        30.09S
TAMPA EXEC     PTCLDY    79  73  83 E3        30.09S
PLANT CITY     CLOUDY    79  77  94 NE3       30.11F
MACDILL AFB    CLEAR     79  79 100 E6        30.08S
PETER O KNIGHT PTCLDY    82  79  89 NE7       30.09S
ST PETERSBURG  MOCLDY    85  77  77 N3        30.06S HX  95
SARASOTA       CLOUDY    84  76  76 CALM      30.07S
VENICE         NOT AVBL

STATION/POSITION SKY/WX   TEMP    WIND        PRES    WAVE   SWELL
                          AIR SEA DIR/SP/G            HT/PER HT/PER
                          (F)     (DEG/KT/KT) (MB)    (FT/S) (FT/S)
27.3N   84.2W                 85                N/A     2/ 6
CLEARWATER BEACH           86 88   20/  5/  6 1018.7
MIDDLE TAMPA BAY                   40/  5/  6 1018.8
VENICE                     83 89   40/  5/  6 1018.0S

$$
FLZ066-069-070-075>078-162-262-165-265-270600-
SOUTHWEST FLORIDA AND KEYS

CITY           SKY/WX    TMP DP  RH WIND       PRES   REMARKS
PUNTA GORDA    CLEAR     78  76  93 NE5       30.09S
FT MYERS       CLEAR     79  76  90 CALM      30.06F
SOUTHWEST INTL CLEAR     79  75  87 CALM      30.07F
NAPLES         PTCLDY    77  74  90 E5        30.07S
MARCO ISLAND   CLEAR     79  72  78 NE5       30.08R
MARATHON       CLEAR     83  76  79 E7        30.04F
KEY WEST NAS   CLEAR     84  75  74 E12       30.03F
KEY WEST INTL  CLEAR     84  77  79 E13       30.04F

STATION/POSITION SKY/WX   TEMP    WIND        PRES    WAVE   SWELL
                          AIR SEA DIR/SP/G            HT/PER HT/PER
                          (F)     (DEG/KT/KT) (MB)    (FT/S) (FT/S)
NAPLES                        89              1018.2
26.0N   85.6W              84 86  120/  8/ 12 1018.0S   2/ 5   2/ 5
DRY TORTUGAS               85     110/ 12/ 14 1017.1F
SAND KEY                   83     110/ 16/ 18 1017.4F
LONG KEY                   84 88  120/ 14/ 16 1017.8F

$$
FLZ067-068-071>074-168-172>174-270600-
SOUTHEAST FLORIDA

CITY           SKY/WX    TMP DP  RH WIND       PRES   REMARKS
W PALM BEACH   PTCLDY    84  75  74 SE6       30.08F
FT LAUDER-EXEC PTCLDY    80  73  79 SE3       30.07F
FT LAUDERDALE  PTCLDY    80  75  84 CALM      30.06F
POMPANO BEACH  LGT RAIN  80  75  84 S3        30.07F
PEMBROKE PINES PTCLDY    79  76  90 CALM      30.08F
OPA LOCKA      PTCLDY    79  75  87 NE3       30.07F
MIAMI          PTCLDY    80  75  84 CALM      30.07F
WEST KENDALL   MOCLDY    78  74  87 E5        30.06F
HOMESTEAD      PTCLDY    80  76  89 NE5       30.05F

STATION/POSITION SKY/WX   TEMP    WIND        PRES    WAVE   SWELL
                          AIR SEA DIR/SP/G            HT/PER HT/PER
                          (F)     (DEG/KT/KT) (MB)    (FT/S) (FT/S)
PORT EVERGLADES            80     220/  2/  4 1018.3F
VIRGINIA KEY               81 89  150/  3/  4 1018.8
LAKE WORTH                        130/ 11/ 12   N/A
FOWEY ROCKS                82 84   70/  1/  2 1018.6F
SETTLEMENT POINT           83     130/  4/  5 1019.5F

$$





USA.gov is the U.S. government's official web portal to all federal, state and local government web resources and services.